TERMEEREN Weather Reports


time (UTC)temp
F
wind
direction
speed
knots
gust
knots
rain 1hr
in
rain 24hr
in
rain mn
in
humidity
%
barometer
mb
20260507183431 56 272 0.0 0.0 0.00 0.00 0.00 70 1016.8
20260507182939 56 272 0.0 0.0 0.00 0.00 0.00 68 1016.8
20260507182447 56 272 0.0 0.9 0.00 0.00 0.00 69 1016.8
20260507181916 56 272 0.0 0.9 0.00 0.00 0.00 69 1016.8
20260507181439 56 272 0.0 0.0 0.00 0.00 0.00 69 1016.8
20260507180920 56 272 0.0 0.0 0.00 0.00 0.00 70 1016.8
20260507180428 56 272 0.0 0.0 0.00 0.00 0.00 68 1016.8
20260507175921 56 272 0.0 0.9 0.00 0.00 0.00 67 1016.8
20260507175424 56 272 0.0 0.9 0.00 0.00 0.00 67 1016.8
20260507174915 57 272 0.0 0.0 0.00 0.00 0.00 67 1016.8
20260507174418 57 272 0.0 0.9 0.00 0.00 0.00 67 1016.8
20260507173926 57 272 0.0 0.9 0.00 0.00 0.00 68 1016.7
20260507173418 57 271 0.0 0.9 0.00 0.00 0.00 67 1016.8
20260507172921 57 289 0.0 1.7 0.00 0.00 0.00 66 1016.7
20260507172436 57 295 0.0 1.7 0.00 0.00 0.00 67 1016.7
20260507171916 57 295 0.0 1.7 0.00 0.00 0.00 66 1016.7
20260507171427 57 264 0.0 0.9 0.00 0.00 0.00 65 1016.7
20260507170928 57 264 0.0 1.7 0.00 0.00 0.00 65 1016.7
20260507170411 57 271 0.0 1.7 0.00 0.00 0.00 66 1016.7
20260507165931 57 298 0.0 2.6 0.00 0.00 0.00 66 1016.7
20260507165412 57 276 0.9 2.6 0.00 0.00 0.00 64 1016.7
20260507164923 57 267 0.0 1.7 0.00 0.00 0.00 64 1016.7
20260507164431 57 282 0.9 1.7 0.00 0.00 0.00 65 1016.7
20260507163921 58 285 0.0 1.7 0.00 0.00 0.00 64 1016.7
20260507163413 58 269 0.0 1.7 0.00 0.00 0.00 64 1016.7
20260507162946 58 307 0.9 1.7 0.00 0.00 0.00 63 1016.7
20260507162433 58 295 0.0 1.7 0.00 0.00 0.00 63 1016.7
20260507161937 58 306 0.0 2.6 0.00 0.00 0.00 63 1016.7
20260507161418 58 283 0.9 2.6 0.00 0.00 0.00 62 1016.6
20260507160921 58 274 0.0 2.6 0.00 0.00 0.00 64 1016.7
20260507160429 58 333 0.0 2.6 0.00 0.00 0.00 63 1016.6
20260507155934 58 291 0.9 2.6 0.00 0.00 0.00 62 1016.7
20260507155414 58 354 0.0 2.6 0.00 0.00 0.00 63 1016.6
20260507154927 59 302 0.0 0.9 0.00 0.00 0.00 61 1016.7
20260507154421 59 18 0.0 1.7 0.00 0.00 0.00 60 1016.7
20260507153920 59 321 0.9 2.6 0.00 0.00 0.00 62 1016.7
20260507153459 59 281 0.9 2.6 0.00 0.00 0.00 60 1016.7
20260507152915 59 285 0.9 2.6 0.00 0.00 0.00 62 1016.6
20260507152429 59 295 0.9 2.6 0.00 0.00 0.00 62 1016.6
20260507151940 59 292 0.9 2.6 0.00 0.00 0.00 59 1016.6
20260507151441 59 290 0.9 3.5 0.00 0.00 0.00 59 1016.7
20260507150913 59 288 0.9 3.5 0.00 0.00 0.00 58 1016.6
20260507150440 59 266 0.0 1.7 0.00 0.00 0.00 58 1016.6
20260507145930 59 278 0.0 1.7 0.00 0.00 0.00 54 1016.6
20260507145413 59 278 0.0 0.9 0.00 0.00 0.00 55 1016.6
20260507144926 59 278 0.0 0.9 0.00 0.00 0.00 56 1016.6
20260507144429 59 250 0.0 0.0 0.00 0.00 0.00 57 1016.6
20260507143928 59 250 0.0 0.9 0.00 0.00 0.00 55 1016.6
20260507143443 59 250 0.9 0.9 0.00 0.00 0.00 56 1016.6
20260507142930 59 298 0.0 0.9 0.00 0.00 0.00 60 1016.6
20260507142437 59 298 0.0 0.9 0.00 0.00 0.00 58 1016.6
20260507141920 59 316 0.0 0.0 0.00 0.00 0.00 56 1016.6
20260507141414 59 316 0.0 0.0 0.00 0.00 0.00 57 1016.7
20260507140936 60 316 0.0 0.0 0.00 0.00 0.00 61 1016.7
20260507140436 59 316 0.0 0.0 0.00 0.00 0.00 59 1016.7
20260507135950 59 316 0.0 0.9 0.00 0.00 0.00 55 1016.7
20260507135411 60 263 0.0 0.9 0.00 0.00 0.00 56 1016.7
20260507134923 60 263 0.0 0.9 0.00 0.00 0.00 55 1016.8
20260507134427 60 304 0.0 0.0 0.00 0.00 0.00 52 1016.8
20260507133922 61 304 0.0 0.0 0.00 0.00 0.00 56 1016.8
20260507133424 61 304 0.0 0.0 0.00 0.00 0.00 55 1016.8
20260507132932 60 304 0.0 0.0 0.00 0.00 0.00 61 1016.8
20260507132415 60 304 0.0 0.0 0.00 0.00 0.00 57 1016.8
20260507131925 60 304 0.0 0.0 0.00 0.00 0.00 55 1016.7
20260507131437 60 304 0.0 0.0 0.00 0.00 0.00 58 1016.8
20260507130921 60 304 0.0 0.0 0.00 0.00 0.00 53 1016.8
20260507130425 60 304 0.0 0.0 0.00 0.00 0.00 57 1016.8
20260507125934 60 304 0.0 1.7 0.00 0.00 0.00 56 1016.8
20260507125419 60 278 0.9 1.7 0.00 0.00 0.00 52 1016.7
20260507124924 60 119 0.0 0.9 0.00 0.00 0.00 55 1016.8
20260507124434 60 119 0.9 0.9 0.00 0.00 0.00 56 1016.7
20260507123936 60 204 0.0 0.9 0.00 0.00 0.00 59 1016.8
20260507123426 60 204 0.0 2.6 0.00 0.00 0.00 58 1016.7
20260507122937 60 236 0.9 2.6 0.00 0.00 0.00 54 1016.7
20260507122426 60 330 0.0 2.6 0.00 0.00 0.00 55 1016.7
20260507121935 60 330 0.0 2.6 0.00 0.00 0.00 57 1016.7
20260507121418 60 228 0.0 0.9 0.00 0.00 0.00 56 1016.7
20260507120930 60 246 0.0 1.7 0.00 0.00 0.00 61 1016.7
20260507120431 60 250 0.0 1.7 0.00 0.00 0.00 56 1016.7
20260507115914 60 265 0.0 2.6 0.00 0.00 0.00 57 1016.7
20260507115446 60 320 0.9 2.6 0.00 0.00 0.00 57 1016.7
20260507114919 60 229 0.0 1.7 0.00 0.00 0.00 56 1016.7
20260507114423 60 259 0.0 1.7 0.00 0.00 0.00 56 1016.7
20260507113913 59 261 0.0 1.7 0.00 0.00 0.00 59 1016.7
20260507113443 59 301 0.0 1.7 0.00 0.00 0.00 57 1016.7
20260507112929 59 261 0.0 0.9 0.00 0.00 0.00 60 1016.7
20260507112414 59 261 0.0 0.9 0.00 0.00 0.00 61 1016.7
20260507111927 59 287 0.0 0.9 0.00 0.00 0.00 58 1016.7
20260507111438 59 287 0.0 0.9 0.00 0.00 0.00 59 1016.7
20260507110915 59 300 0.0 1.7 0.00 0.00 0.00 59 1016.8
20260507110422 59 304 0.9 1.7 0.00 0.00 0.00 60 1016.8
20260507105936 59 214 0.0 3.5 0.00 0.00 0.00 60 1016.9
20260507105417 59 290 0.0 3.5 0.00 0.00 0.00 61 1016.8
20260507104930 59 277 0.0 0.0 0.00 0.00 0.00 67 1016.8
20260507104422 58 277 0.0 0.0 0.00 0.00 0.00 65 1016.8
20260507103953 58 277 0.0 0.0 0.00 0.00 0.00 62 1016.9
20260507103440 58 277 0.0 0.9 0.00 0.00 0.00 65 1016.9
20260507102921 57 277 0.0 2.6 0.00 0.00 0.00 64 1016.9
20260507102410 57 277 0.9 3.5 0.00 0.00 0.00 64 1016.9
20260507101921 57 267 0.0 2.6 0.00 0.00 0.00 64 1017.0
20260507101424 57 245 0.9 2.6 0.00 0.00 0.00 66 1016.9
20260507100915 57 264 1.7 2.6 0.00 0.00 0.00 67 1016.9
20260507100417 57 316 0.0 2.6 0.00 0.00 0.00 66 1016.9
20260507095951 57 193 0.0 2.6 0.00 0.00 0.00 68 1016.9
20260507095441 56 302 0.0 1.7 0.00 0.00 0.00 69 1016.9
20260507094925 56 192 0.0 0.0 0.00 0.00 0.00 71 1016.9
20260507094420 56 192 0.0 1.7 0.00 0.00 0.00 72 1016.9
20260507093933 56 192 0.0 1.7 0.00 0.00 0.00 72 1016.9
20260507093416 56 321 0.0 1.7 0.00 0.00 0.00 74 1016.9
20260507092927 56 259 0.0 0.0 0.00 0.00 0.00 77 1016.9
20260507092420 55 259 0.0 2.6 0.00 0.00 0.00 75 1016.8
20260507091911 55 259 0.9 2.6 0.00 0.00 0.00 73 1016.8
20260507091420 55 285 0.9 2.6 0.00 0.00 0.00 73 1016.8
20260507090947 55 308 0.0 0.9 0.00 0.00 0.00 75 1016.8
20260507090435 55 259 0.0 0.9 0.00 0.00 0.00 76 1016.8
20260507085915 54 259 0.0 2.6 0.00 0.00 0.00 78 1016.8
20260507085422 54 275 0.9 2.6 0.00 0.00 0.00 78 1016.7
20260507084934 54 278 0.9 2.6 0.00 0.00 0.00 76 1016.7
20260507084414 54 278 0.0 2.6 0.00 0.00 0.00 78 1016.7
20260507083923 54 299 0.9 2.6 0.00 0.00 0.00 77 1016.6
20260507083453 54 283 0.0 2.6 0.00 0.00 0.00 79 1016.7
20260507082912 54 239 0.9 1.7 0.00 0.00 0.00 78 1016.6
20260507082422 53 219 0.0 1.7 0.00 0.00 0.00 80 1016.6
20260507081913 53 298 0.0 1.7 0.00 0.00 0.00 81 1016.6
20260507081412 53 293 0.0 0.0 0.00 0.00 0.00 80 1016.6
20260507080924 53 294 0.0 0.9 0.00 0.00 0.00 81 1016.7
20260507080418 53 239 0.0 1.7 0.00 0.00 0.00 82 1016.6
20260507075945 52 281 0.9 1.7 0.00 0.00 0.00 83 1016.5
20260507075437 52 263 0.0 2.6 0.00 0.04 0.00 82 1016.5
20260507074921 52 173 0.0 2.6 0.00 0.04 0.00 82 1016.5
20260507074413 52 300 0.0 1.7 0.00 0.04 0.00 83 1016.4
20260507073919 51 264 0.0 2.6 0.00 0.04 0.00 83 1016.3
20260507073414 51 295 0.9 2.6 0.00 0.04 0.00 83 1016.4
20260507072947 51 262 0.0 3.5 0.00 0.04 0.00 83 1016.4
20260507072437 51 280 0.0 3.5 0.00 0.04 0.00 84 1016.3
20260507071927 51 269 0.0 0.9 0.00 0.04 0.00 84 1016.2
20260507071428 51 4 0.0 0.9 0.00 0.04 0.00 83 1016.1
20260507070939 51 215 0.0 0.9 0.00 0.04 0.00 84 1016.2
20260507070418 50 310 0.0 0.9 0.00 0.04 0.00 84 1016.1
20260507065931 50 304 0.0 1.7 0.00 0.04 0.00 84 1016.1
20260507065424 50 295 0.0 1.7 0.00 0.04 0.00 85 1016.1
20260507064912 50 219 0.0 1.7 0.00 0.04 0.00 85 1016.1
20260507064431 50 297 0.0 1.7 0.00 0.04 0.00 85 1016.0
20260507063930 50 187 0.0 0.9 0.00 0.04 0.00 85 1016.1
20260507063418 49 187 0.0 0.9 0.00 0.04 0.00 85 1016.0
20260507062931 49 187 0.0 0.9 0.00 0.04 0.00 85 1016.0
20260507062416 49 202 0.0 0.9 0.00 0.04 0.00 85 1016.0
20260507061929 49 160 0.0 0.9 0.00 0.04 0.00 86 1016.0
20260507061409 49 160 0.0 0.0 0.00 0.04 0.00 87 1015.9
20260507060923 48 160 0.0 0.0 0.00 0.04 0.00 87 1015.9
20260507060425 48 160 0.0 0.0 0.00 0.04 0.00 87 1015.8
20260507055932 48 160 0.0 0.0 0.00 0.04 0.00 88 1015.8
20260507055415 48 160 0.0 0.0 0.00 0.04 0.00 88 1015.8
20260507054928 48 160 0.0 0.0 0.00 0.04 0.00 88 1015.7
20260507054441 48 160 0.0 0.0 0.00 0.04 0.00 88 1015.6
20260507053924 48 160 0.0 0.0 0.00 0.04 0.00 88 1015.6
20260507053417 48 160 284.2 0.0 0.00 0.04 0.00 88 1015.5
20260507052930 0 0.0 0.0 0.00 0.04 0.00 1015.5
20260507052425 0 0.0 0.0 0.00 0.04 0.00 1015.4
20260507051950 0 0.0 0.0 0.00 0.04 0.00 1015.5
20260507051423 0 0.0 0.0 0.00 0.04 0.00 1015.5
20260507050430 0 0.0 0.0 0.00 0.04 0.00 1015.3
20260507045921 0 0.0 0.0 0.00 0.04 0.00 1015.3
20260507045421 0 0.0 0.0 0.00 0.04 0.00 1015.3
20260507044915 0 0.0 0.0 0.00 0.04 0.00 1015.2
20260507044534 0 0.0 0.0 0.00 0.04 0.00 1015.2
20260507043919 0 0.0 0.0 0.00 0.04 0.00 1015.1
20260507043412 0 0.0 0.0 0.00 0.04 0.00 1015.1
20260507042915 0 0.0 0.0 0.00 0.04 0.00 1015.1
20260507041922 46 155 0.0 0.0 0.00 0.04 0.00 87 1015.0
20260507041413 47 160 0.0 0.0 0.00 0.04 0.00 88 1015.0
20260507040429 47 160 0.0 0.0 0.00 0.04 0.00 88 1015.0
20260507040000 47 160 0.0 0.0 0.00 0.04 0.00 88 1015.0
20260507035422 47 160 0.0 0.9 0.00 0.04 0.00 88 1014.9
20260507034915 47 160 0.0 0.9 0.00 0.04 0.00 88 1014.9
20260507034428 47 131 0.0 0.9 0.00 0.04 0.00 88 1014.9
20260507033435 48 146 0.0 0.9 0.00 0.04 0.00 87 1014.8
20260507032927 48 146 0.0 0.0 0.00 0.04 0.00 87 1014.7
20260507032447 48 146 0.0 0.0 0.00 0.04 0.00 86 1014.7
20260507031937 48 146 0.0 0.9 0.00 0.04 0.00 87 1014.7
20260507031438 48 146 0.0 0.9 0.00 0.04 0.00 87 1014.7
20260507030927 48 146 0.0 0.0 0.00 0.04 0.00 86 1014.6
20260507030412 48 285 0.0 0.0 0.00 0.04 0.00 84 1014.6
20260507025948 48 284 0.0 0.0 0.00 0.04 0.00 83 1014.6
20260507025412 48 285 0.0 0.0 0.00 0.08 0.00 83 1014.6
20260507024947 48 285 0.0 0.0 0.00 0.08 0.00 83 1014.6
20260507024417 48 284 0.0 0.0 0.00 0.08 0.00 84 1014.6
20260507023930 48 285 0.0 0.0 0.00 0.08 0.00 85 1014.5
20260507023414 48 285 0.0 0.9 0.00 0.08 0.00 86 1014.5
20260507022419 48 284 0.0 0.9 0.00 0.08 0.00 87 1014.4
20260507021950 48 285 0.0 0.9 0.00 0.08 0.00 87 1014.5
20260507021428 48 285 0.0 0.0 0.00 0.08 0.00 87 1014.5
20260507020921 48 285 0.0 0.0 0.00 0.08 0.00 86 1014.4
20260507020418 48 285 0.0 0.0 0.00 0.08 0.00 85 1014.3
20260507015927 48 284 0.0 0.0 0.00 0.08 0.00 85 1014.3
20260507015424 48 285 0.0 0.0 0.00 0.08 0.00 85 1014.2
20260507014915 48 285 0.0 0.0 0.00 0.08 0.00 86 1014.2
20260507014449 48 285 0.0 0.0 0.00 0.08 0.00 87 1014.2
20260507013938 48 285 0.0 0.0 0.00 0.08 0.00 85 1014.1
20260507013424 48 285 0.0 0.0 0.00 0.08 0.00 84 1014.1
20260507012937 48 285 0.0 0.0 0.00 0.08 0.00 83 1014.1
20260507012458 48 285 0.0 0.0 0.00 0.08 0.00 84 1014.1
20260507011921 48 285 0.0 0.0 0.00 0.08 0.00 85 1014.1
20260507011432 48 285 0.0 0.0 0.00 0.08 0.00 85 1014.1
20260507010942 48 285 0.0 0.0 0.00 0.08 0.00 82 1014.2
20260507010428 48 285 0.0 0.0 0.00 0.08 0.00 82 1014.2
20260507005938 48 285 0.0 0.0 0.00 0.08 0.00 83 1014.1
20260507005410 49 285 0.0 0.0 0.00 0.08 0.00 83 1014.1
20260507004913 49 285 0.0 0.0 0.00 0.08 0.00 83 1014.1
20260507004421 49 285 0.0 0.0 0.00 0.08 0.00 80 1014.1
20260507003915 49 285 0.0 0.0 0.00 0.08 0.00 81 1014.1
20260507003417 49 285 0.0 0.0 0.00 0.08 0.00 80 1014.0
20260507002926 49 285 0.0 0.0 0.00 0.08 0.00 80 1014.0
20260507002420 49 285 0.0 0.0 0.00 0.08 0.00 80 1014.0
20260507001950 49 285 0.0 0.0 0.00 0.08 0.00 80 1014.0
20260507001500 49 285 0.0 0.0 0.00 0.08 0.00 80 1014.0
20260507000922 49 285 0.0 0.0 0.00 0.08 0.00 80 1013.9
20260507000458 49 285 0.0 0.0 0.00 0.08 0.00 80 1013.9
20260506235917 49 285 0.0 0.0 0.00 0.08 0.00 80 1013.9
20260506235450 49 285 0.0 0.0 0.00 0.20 0.00 80 1013.9
20260506234942 49 285 0.0 0.9 0.00 0.20 0.00 80 1013.9
20260506234423 49 285 0.0 0.9 0.00 0.20 0.00 80 1013.9
20260506233917 49 285 0.0 0.0 0.00 0.20 0.00 79 1013.8
20260506233430 49 285 0.0 0.0 0.00 0.20 0.00 79 1013.8
20260506232913 49 285 0.0 0.0 0.00 0.20 0.00 79 1013.7
20260506232427 49 285 0.0 0.0 0.00 0.20 0.00 79 1013.7
20260506231935 49 285 0.0 0.0 0.00 0.20 0.00 79 1013.7
20260506231418 49 285 0.0 0.0 0.00 0.20 0.00 79 1013.7
20260506230932 49 285 0.0 0.0 0.00 0.20 0.00 79 1013.7
20260506230439 49 285 0.0 0.0 0.00 0.20 0.00 79 1013.5
20260506225952 49 285 0.0 0.0 0.00 0.20 0.00 79 1013.5
20260506225414 49 285 0.0 0.0 0.00 0.35 0.00 79 1013.5
20260506224928 49 285 0.0 0.0 0.00 0.35 0.00 79 1013.5
20260506224426 49 285 0.0 0.0 0.00 0.35 0.00 78 1013.4
20260506223917 49 285 0.0 0.0 0.00 0.35 0.00 78 1013.4
20260506223432 49 285 0.0 0.0 0.00 0.35 0.00 78 1013.4
20260506222914 49 285 0.0 0.0 0.00 0.35 0.00 78 1013.4
20260506222429 49 285 0.0 0.0 0.00 0.35 0.00 79 1013.4
20260506221912 49 285 0.0 0.0 0.00 0.35 0.00 79 1013.4
20260506221423 49 285 0.0 0.0 0.00 0.35 0.00 80 1013.3
20260506220934 49 285 0.0 0.0 0.00 0.35 0.00 79 1013.3
20260506220437 49 285 0.0 0.0 0.00 0.35 0.00 80 1013.3
20260506215917 48 285 0.0 0.0 0.00 0.35 0.00 80 1013.3
20260506215428 48 285 0.0 0.0 0.00 0.51 0.07 80 1013.4
20260506214940 48 285 0.0 0.0 0.00 0.51 0.07 81 1013.4
20260506214413 48 285 0.0 0.0 0.00 0.51 0.07 81 1013.3
20260506213942 48 285 0.0 0.0 0.00 0.51 0.07 82 1013.3
20260506213431 47 285 0.0 0.0 0.00 0.51 0.07 81 1013.2
20260506212926 47 285 0.0 0.0 0.00 0.51 0.07 82 1013.2
20260506212411 47 285 0.0 0.0 0.00 0.51 0.07 82 1013.2
20260506211944 48 285 0.0 0.0 0.00 0.51 0.07 82 1013.2
20260506211435 48 285 0.0 0.0 0.00 0.51 0.07 82 1013.1
20260506210928 48 285 0.0 0.0 0.00 0.51 0.07 81 1013.0
20260506210434 48 285 0.0 0.0 0.00 0.51 0.07 81 1013.1
20260506205947 48 285 0.0 0.0 0.00 0.51 0.07 81 1013.0
20260506205422 48 285 0.0 0.0 0.00 0.63 0.07 81 1013.0
20260506204913 48 285 0.0 0.0 0.00 0.63 0.07 81 1013.0
20260506204445 48 285 0.0 0.0 0.00 0.63 0.07 81 1012.9
20260506203935 48 285 0.0 0.0 0.00 0.63 0.07 80 1013.0
20260506203415 48 285 0.0 0.0 0.00 0.63 0.07 80 1012.9
20260506202930 48 285 0.0 0.0 0.00 0.63 0.07 80 1012.9
20260506202412 48 285 0.0 0.0 0.00 0.63 0.07 79 1012.9
20260506201922 49 285 0.0 0.0 0.00 0.63 0.07 79 1012.8
20260506201433 49 285 0.0 0.9 0.00 0.63 0.07 78 1012.8
20260506200919 49 285 0.0 0.9 0.00 0.63 0.07 78 1012.7
20260506200423 50 285 0.0 1.7 0.00 0.63 0.07 77 1012.7
20260506195936 50 304 0.0 2.6 0.00 0.63 0.07 77 1012.7
20260506195420 50 267 0.9 3.5 0.00 0.75 0.07 76 1012.7
20260506194931 50 302 1.7 3.5 0.00 0.75 0.07 75 1012.6
20260506193927 51 337 0.9 3.5 0.00 0.75 0.07 75 1012.5
20260506193441 51 344 0.9 3.5 0.00 0.75 0.07 74 1012.5
20260506192932 52 279 0.9 3.5 0.00 0.75 0.07 74 1012.5
20260506192413 52 17 0.9 3.5 0.00 0.75 0.07 73 1012.3
20260506191927 52 307 0.9 2.6 0.00 0.75 0.07 72 1012.2
20260506191411 52 296 0.9 3.5 0.00 0.75 0.07 71 1012.2
20260506190925 52 322 0.9 1.7 0.00 0.75 0.07 72 1012.1
20260506190427 52 300 0.0 2.6 0.00 0.75 0.07 70 1012.0
20260506185939 53 269 0.9 2.6 0.00 0.75 0.07 70 1011.9
20260506185414 53 310 0.9 3.5 0.00 0.75 0.07 70 1011.8
20260506184925 53 6 0.9 3.5 0.00 0.75 0.07 70 1011.8
20260506184437 53 289 0.9 1.7 0.00 0.75 0.07 69 1011.7
20260506183921 53 273 0.0 1.7 0.00 0.75 0.07 72 1011.6